EW6442 Weather Reports


time (UTC)temp
C
wind
direction
speed
KPH
gust
KPH
rain 1hr
cm
rain 24hr
cm
rain mn
cm
humidity
%
barometer
mb
20260507114023 20 24 1.6 6.4 0.00 0.00 0.00 68 1015.8
20260507113520 20 25 1.6 6.4 0.00 0.00 0.00 67 1015.7
20260507113038 20 345 1.6 4.8 0.00 0.00 0.00 68 1015.6
20260507112521 20 344 1.6 3.2 0.00 0.00 0.00 68 1015.6
20260507112021 20 345 1.6 6.4 0.00 0.00 0.00 68 1015.6
20260507111521 20 345 0.0 4.8 0.00 0.00 0.00 68 1015.5
20260507111017 20 359 0.0 3.2 0.00 0.00 0.00 69 1015.5
20260507110519 20 345 0.0 4.8 0.00 0.00 0.00 69 1015.5
20260507110017 20 344 0.0 4.8 0.00 0.00 0.00 70 1015.4
20260507105515 20 345 0.0 3.2 0.00 0.00 0.00 70 1015.6
20260507105015 20 345 0.0 4.8 0.00 0.00 0.00 70 1015.6
20260507104515 20 345 0.0 4.8 0.00 0.00 0.00 71 1015.4
20260507104015 20 345 1.6 6.4 0.00 0.00 0.00 71 1015.3
20260507103516 20 359 3.2 6.4 0.00 0.00 0.00 71 1015.2
20260507103018 20 20 3.2 8.0 0.00 0.00 0.00 72 1015.4
20260507102513 20 359 3.2 8.0 0.00 0.00 0.00 72 1015.3
20260507102011 20 359 4.8 9.7 0.00 0.00 0.00 72 1015.2
20260507101516 20 14 4.8 12.9 0.00 0.00 0.00 72 1015.2
20260507101010 20 359 4.8 12.9 0.00 0.00 0.00 73 1015.2
20260507100508 20 345 6.4 12.9 0.00 0.00 0.00 73 1015.2
20260507100007 20 31 3.2 9.7 0.00 0.00 0.00 73 1014.8
20260507095507 20 341 3.2 6.4 0.00 0.00 0.00 73 1014.8
20260507095007 20 316 3.2 8.0 0.00 0.00 0.00 73 1014.8
20260507094506 20 359 3.2 9.7 0.00 0.00 0.00 73 1014.8
20260507094006 20 354 4.8 9.7 0.00 0.00 0.00 72 1014.7
20260507093508 20 332 1.6 6.4 0.00 0.00 0.00 72 1014.7
20260507093004 20 332 1.6 6.4 0.00 0.00 0.00 72 1014.7
20260507092505 20 359 3.2 4.8 0.00 0.00 0.00 73 1014.6
20260507092006 20 341 1.6 6.4 0.00 0.00 0.00 73 1014.6
20260507091503 20 359 3.2 9.7 0.00 0.00 0.00 73 1014.5
20260507091002 20 340 3.2 8.0 0.00 0.00 0.00 73 1014.5
20260507090559 20 348 3.2 6.4 0.00 0.00 0.00 73 1014.4
20260507090058 20 324 3.2 8.0 0.00 0.00 0.00 73 1014.5
20260507085559 21 339 3.2 8.0 0.00 0.00 0.00 73 1014.4
20260507085058 21 347 3.2 8.0 0.00 0.00 0.00 73 1014.4
20260507084610 21 359 1.6 8.0 0.00 0.00 0.00 73 1014.4
20260507084056 21 359 1.6 6.4 0.00 0.00 0.00 73 1014.6
20260507083556 21 8 3.2 6.4 0.00 0.00 0.00 73 1014.4
20260507083055 21 349 1.6 8.0 0.00 0.00 0.00 73 1014.5
20260507082555 21 335 1.6 8.0 0.00 0.00 0.00 73 1014.3
20260507082054 21 334 3.2 6.4 0.00 0.00 0.00 72 1014.4
20260507081600 21 333 3.2 4.8 0.00 0.00 0.00 72 1014.5
20260507081054 21 333 1.6 8.0 0.00 0.00 0.00 72 1014.5
20260507080552 21 334 1.6 8.0 0.00 0.00 0.00 72 1014.6
20260507080051 21 333 0.0 1.6 0.00 0.00 0.00 71 1014.6
20260507075552 21 333 0.0 3.2 0.00 0.00 0.00 71 1014.8
20260507075051 21 333 0.0 3.2 0.00 0.00 0.00 70 1014.6
20260507074556 21 333 0.0 4.8 0.00 0.00 0.00 70 1014.7
20260507074054 21 334 1.6 6.4 0.00 0.00 0.00 70 1014.7
20260507073549 21 333 1.6 8.0 0.00 0.00 0.00 70 1014.7
20260507073052 21 333 3.2 8.0 0.00 0.00 0.00 70 1014.7
20260507072548 21 334 3.2 9.7 0.00 0.00 0.00 69 1014.6
20260507072050 21 334 3.2 9.7 0.00 0.00 0.00 69 1014.5
20260507071547 21 333 0.0 4.8 0.00 0.00 0.00 69 1014.5
20260507071046 21 333 0.0 6.4 0.00 0.00 0.00 69 1014.6
20260507070516 21 359 3.2 6.4 0.00 0.00 0.00 68 1014.6
20260507070016 21 333 1.6 4.8 0.00 0.00 0.00 68 1014.6
20260507065515 21 333 1.6 6.4 0.00 0.00 0.00 68 1014.5
20260507065014 22 4 3.2 8.0 0.00 0.00 0.00 67 1014.5
20260507064513 22 342 4.8 8.0 0.00 0.00 0.00 67 1014.7
20260507064013 22 58 1.6 6.4 0.00 0.00 0.00 67 1014.7
20260507063514 22 326 3.2 8.0 0.00 0.00 0.00 66 1014.6
20260507063011 22 52 0.0 8.0 0.00 0.00 0.00 66 1014.6
20260507062511 22 36 3.2 6.4 0.00 0.00 0.00 66 1014.6
20260507062010 22 354 3.2 12.9 0.00 0.00 0.00 66 1014.7
20260507061510 22 335 3.2 12.9 0.00 0.00 0.00 66 1014.8
20260507061010 22 350 4.8 8.0 0.00 0.00 0.00 65 1014.8
20260507060507 22 354 1.6 8.0 0.00 0.00 0.00 64 1014.7
20260507060007 22 4 1.6 8.0 0.00 0.00 0.00 64 1014.8
20260507055507 22 329 3.2 8.0 0.00 0.00 0.00 64 1014.7
20260507055011 22 341 1.6 8.0 0.00 0.00 0.00 64 1014.7
20260507054505 22 14 1.6 8.0 0.00 0.00 0.00 63 1014.8
20260507054005 22 44 3.2 8.0 0.00 0.00 0.00 63 1014.7
20260507053504 22 34 4.8 9.7 0.00 0.00 0.00 62 1014.9
20260507053001 23 12 3.2 9.7 0.00 0.00 0.00 62 1014.7
20260507052604 23 322 3.2 8.0 0.00 0.00 0.00 61 1014.6
20260507052100 23 31 1.6 9.7 0.00 0.00 0.00 61 1014.5
20260507051600 23 64 1.6 9.7 0.00 0.00 0.00 61 1014.5
20260507051058 23 58 1.6 8.0 0.00 0.00 0.00 61 1014.5
20260507050601 23 339 1.6 8.0 0.00 0.00 0.00 61 1014.3
20260507050057 23 327 4.8 12.9 0.00 0.00 0.00 61 1014.3
20260507045557 23 354 4.8 12.9 0.00 0.00 0.00 61 1014.2
20260507045056 23 341 3.2 12.9 0.00 0.00 0.00 60 1014.2
20260507044609 23 35 3.2 9.7 0.00 0.00 0.00 60 1014.2
20260507044055 23 4 4.8 9.7 0.00 0.00 0.00 60 1014.1
20260507043553 23 330 3.2 16.1 0.00 0.00 0.00 59 1014.2
20260507043026 23 14 8.0 16.1 0.00 0.00 0.00 59 1014.0
20260507042522 23 341 8.0 16.1 0.00 0.00 0.00 58 1014.0
20260507042021 23 328 3.2 16.1 0.00 0.00 0.00 58 1013.8
20260507041521 23 333 6.4 16.1 0.00 0.00 0.00 57 1013.9
20260507041020 23 343 4.8 12.9 0.00 0.00 0.00 57 1013.7
20260507040519 24 349 4.8 12.9 0.00 0.00 0.00 56 1013.6
20260507040015 24 347 4.8 12.9 0.00 0.00 0.00 55 1013.6
20260507035514 24 314 4.8 12.9 0.00 0.00 0.00 54 1013.5
20260507035013 24 331 3.2 14.5 0.00 0.00 0.00 54 1013.3
20260507034521 25 359 6.4 19.3 0.00 0.00 0.00 53 1013.2
20260507034012 25 31 4.8 19.3 0.00 0.00 0.00 52 1012.9
20260507033511 25 12 4.8 12.9 0.00 0.00 0.00 50 1012.9
20260507033012 25 354 6.4 14.5 0.00 0.00 0.00 51 1012.9
20260507032512 25 359 8.0 14.5 0.00 0.00 0.00 52 1012.8
20260507032010 25 16 4.8 14.5 0.00 0.00 0.00 53 1012.8
20260507031509 25 322 4.8 12.9 0.00 0.00 0.00 54 1012.8
20260507031009 25 359 3.2 8.0 0.00 0.00 0.00 54 1012.7
20260507030511 25 9 3.2 12.9 0.00 0.00 0.00 54 1012.7
20260507030008 25 4 3.2 16.1 0.00 0.00 0.00 54 1012.4
20260507025508 25 359 6.4 16.1 0.00 0.00 0.00 54 1012.4
20260507025005 25 10 8.0 16.1 0.00 0.00 0.00 54 1012.4
20260507024510 25 342 6.4 16.1 0.00 0.00 0.00 54 1012.3
20260507024003 25 359 9.7 16.1 0.00 0.00 0.00 54 1012.3
20260507023502 25 10 6.4 12.9 0.00 0.00 0.00 53 1012.1
20260507023006 25 37 4.8 16.1 0.00 0.00 0.00 53 1012.1
20260507022501 26 32 8.0 16.1 0.00 0.00 0.00 52 1012.0
20260507022100 26 349 6.4 14.5 0.00 0.00 0.00 52 1011.9
20260507021559 26 317 6.4 14.5 0.00 0.00 0.00 52 1011.9
20260507021058 26 349 8.0 17.7 0.00 0.00 0.00 51 1011.8
20260507020557 26 341 6.4 19.3 0.00 0.00 0.00 50 1011.7
20260507020103 26 359 9.7 20.9 0.00 0.00 0.00 49 1011.6
20260507015552 26 308 8.0 19.3 0.00 0.00 0.00 48 1011.4
20260507015051 27 12 9.7 17.7 0.00 0.00 0.00 47 1011.6
20260507014549 27 14 6.4 17.7 0.00 0.00 0.00 45 1011.5
20260507014049 27 354 9.7 20.9 0.00 0.00 0.00 44 1011.4
20260507013548 28 4 9.7 20.9 0.00 0.00 0.00 41 1011.1
20260507013046 28 20 8.0 12.9 0.00 0.00 0.00 37 1011.0
20260507012546 28 343 3.2 9.7 0.00 0.00 0.00 34 1011.0
20260507012042 29 349 6.4 9.7 0.00 0.00 0.00 34 1010.9
20260507011546 29 337 3.2 8.0 0.00 0.00 0.00 33 1010.8
20260507011040 29 343 4.8 8.0 0.00 0.00 0.00 31 1010.9
20260507010539 29 341 3.2 8.0 0.00 0.00 0.00 28 1010.8
20260507010039 30 17 4.8 12.9 0.00 0.00 0.00 29 1010.8
20260507005507 30 322 3.2 12.9 0.00 0.00 0.00 28 1010.9
20260507005006 30 359 4.8 12.9 0.00 0.00 0.00 29 1010.8
20260507004505 30 359 4.8 9.7 0.00 0.00 0.00 28 1010.7
20260507004004 30 354 4.8 14.5 0.00 0.00 0.00 25 1010.8
20260507003504 30 346 6.4 14.5 0.00 0.00 0.00 22 1010.7
20260507003002 31 8 6.4 16.1 0.00 0.00 0.00 22 1010.6
20260507002558 31 345 6.4 16.1 0.00 0.00 0.00 20 1010.6
20260507002057 31 354 8.0 16.1 0.00 0.00 0.00 20 1010.4
20260507001614 31 313 6.4 19.3 0.00 0.00 0.00 20 1010.4
20260507001054 31 359 4.8 20.9 0.00 0.00 0.00 20 1010.5
20260507000556 32 346 9.7 20.9 0.00 0.00 0.00 19 1010.5
20260507000054 32 322 6.4 16.1 0.00 0.00 0.00 18 1010.5
20260506235551 32 285 8.0 14.5 0.00 0.00 0.00 17 1010.4
20260506235050 33 305 3.2 12.9 0.00 0.00 0.00 14 1010.4
20260506234554 33 338 6.4 16.1 0.00 0.00 0.00 12 1010.4
20260506234053 33 319 3.2 16.1 0.00 0.00 0.00 10 1010.4
20260506233550 33 328 8.0 17.7 0.00 0.00 0.00 10 1010.3
20260506233051 33 339 6.4 17.7 0.00 0.00 0.00 10 1010.3
20260506232547 33 303 8.0 17.7 0.00 0.00 0.00 10 1010.4
20260506232046 33 8 6.4 17.7 0.00 0.00 0.00 10 1010.3
20260506231549 33 320 8.0 19.3 0.00 0.00 0.00 9 1010.4
20260506231046 33 308 9.7 19.3 0.00 0.00 0.00 8 1010.4
20260506230544 33 321 8.0 19.3 0.00 0.00 0.00 8 1010.3
20260506230054 33 290 6.4 17.7 0.00 0.00 0.00 7 1010.4
20260506225548 33 332 8.0 19.3 0.00 0.00 0.00 7 1010.2
20260506225044 33 309 11.3 19.3 0.00 0.00 0.00 7 1010.3
20260506224545 33 359 6.4 20.9 0.00 0.00 0.00 7 1010.3
20260506224043 33 359 6.4 19.3 0.00 0.00 0.00 7 1010.4
20260506223548 33 326 6.4 22.5 0.00 0.00 0.00 7 1010.4
20260506223044 33 359 11.3 22.5 0.00 0.00 0.00 7 1010.3
20260506222541 33 359 12.9 20.9 0.00 0.00 0.00 7 1010.4
20260506222042 33 321 6.4 20.9 0.00 0.00 0.00 7 1010.5
20260506221551 33 322 6.4 16.1 0.00 0.00 0.00 7 1010.5
20260506221041 33 301 8.0 17.7 0.00 0.00 0.00 7 1010.4
20260506220541 33 354 9.7 20.9 0.00 0.00 0.00 7 1010.4
20260506220041 33 322 9.7 20.9 0.00 0.00 0.00 7 1010.4
20260506215542 33 345 9.7 22.5 0.00 0.00 0.00 7 1010.4
20260506215039 33 29 11.3 22.5 0.00 0.00 0.00 7 1010.4
20260506214539 33 316 11.3 22.5 0.00 0.00 0.00 7 1010.4
20260506214039 33 359 12.9 25.7 0.00 0.00 0.00 7 1010.5
20260506213540 33 349 11.3 25.7 0.00 0.00 0.00 7 1010.5
20260506213038 34 332 9.7 24.1 0.00 0.00 0.00 7 1010.6
20260506212537 34 359 8.0 29.0 0.00 0.00 0.00 7 1010.5
20260506212009 34 359 11.3 27.4 0.00 0.00 0.00 7 1010.5
20260506211505 34 47 9.7 27.4 0.00 0.00 0.00 7 1010.7
20260506211005 34 316 11.3 20.9 0.00 0.00 0.00 7 1011.0
20260506210510 34 258 6.4 17.7 0.00 0.00 0.00 7 1011.0
20260506210007 34 283 8.0 19.3 0.00 0.00 0.00 7 1011.2
20260506205503 34 333 3.2 14.5 0.00 0.00 0.00 7 1011.3
20260506205100 35 82 4.8 17.7 0.00 0.00 0.00 7 1011.3
20260506204602 34 319 4.8 17.7 0.00 0.00 0.00 7 1011.3
20260506204058 33 298 6.4 20.9 0.00 0.00 0.00 7 1011.3
20260506203557 33 342 6.4 20.9 0.00 0.00 0.00 7 1011.4
20260506203120 34 304 8.0 17.7 0.00 0.00 0.00 7 1011.5
20260506202557 34 67 3.2 16.1 0.00 0.00 0.00 6 1011.7
20260506202055 34 110 3.2 8.0 0.00 0.00 0.00 6 1011.8
20260506201555 34 117 1.6 14.5 0.00 0.00 0.00 7 1011.8
20260506201057 33 78 4.8 14.5 0.00 0.00 0.00 6 1011.9
20260506200557 34 24 6.4 16.1 0.00 0.00 0.00 7 1011.9
20260506200056 33 359 6.4 16.1 0.00 0.00 0.00 7 1011.9
20260506195551 33 322 6.4 14.5 0.00 0.00 0.00 7 1012.1
20260506195022 33 52 1.6 17.7 0.00 0.00 0.00 7 1012.1
20260506194525 33 330 4.8 12.9 0.00 0.00 0.00 7 1012.3
20260506194022 33 269 1.6 17.7 0.00 0.00 0.00 7 1012.4
20260506193520 33 10 3.2 19.3 0.00 0.00 0.00 7 1012.4
20260506193032 33 21 9.7 19.3 0.00 0.00 0.00 7 1012.5
20260506192519 33 4 3.2 12.9 0.00 0.00 0.00 7 1012.5
20260506192014 33 325 1.6 11.3 0.00 0.00 0.00 7 1012.6
20260506191513 33 316 1.6 14.5 0.00 0.00 0.00 7 1012.6
20260506191013 32 328 3.2 14.5 0.00 0.00 0.00 7 1012.7
20260506190511 32 45 4.8 17.7 0.00 0.00 0.00 7 1012.7
20260506190012 32 59 8.0 17.7 0.00 0.00 0.00 7 1012.7
20260506185512 32 335 6.4 16.1 0.00 0.00 0.00 7 1012.9
20260506185010 32 320 3.2 9.7 0.00 0.00 0.00 7 1012.9
20260506184509 32 348 3.2 9.7 0.00 0.00 0.00 7 1012.9
20260506184008 32 311 3.2 14.5 0.00 0.00 0.00 7 1013.1
20260506183512 32 354 4.8 14.5 0.00 0.00 0.00 7 1013.1
20260506183008 32 55 3.2 16.1 0.00 0.00 0.00 7 1013.1
20260506182511 32 86 6.4 16.1 0.00 0.00 0.00 7 1013.2
20260506182006 32 359 4.8 14.5 0.00 0.00 0.00 7 1013.3
20260506181505 32 322 3.2 8.0 0.00 0.00 0.00 7 1013.4
20260506181006 31 149 1.6 8.0 0.00 0.00 0.00 7 1013.4
20260506180506 31 359 3.2 14.5 0.00 0.00 0.00 7 1013.4
20260506180008 31 359 6.4 14.5 0.00 0.00 0.00 7 1013.5
20260506175505 31 40 4.8 12.9 0.00 0.00 0.00 8 1013.5
20260506175005 31 77 4.8 14.5 0.00 0.00 0.00 7 1013.6
20260506174505 31 359 6.4 14.5 0.00 0.00 0.00 7 1013.7
20260506174005 31 4 4.8 14.5 0.00 0.00 0.00 7 1013.9
20260506173509 31 70 3.2 16.1 0.00 0.00 0.00 7 1014.1
20260506173005 31 70 6.4 19.3 0.00 0.00 0.00 7 1014.4
20260506172505 31 60 6.4 19.3 0.00 0.00 0.00 7 1014.3
20260506172003 31 73 3.2 16.1 0.00 0.00 0.00 7 1014.3
20260506171503 31 62 8.0 16.1 0.00 0.00 0.00 7 1014.4
20260506171006 31 22 1.6 12.9 0.00 0.00 0.00 7 1014.3
20260506170502 31 359 3.2 12.9 0.00 0.00 0.00 7 1014.4
20260506170002 31 176 4.8 12.9 0.00 0.00 0.00 7 1014.5
20260506165502 31 174 1.6 14.5 0.00 0.00 0.00 7 1014.4
20260506165002 31 354 6.4 14.5 0.00 0.00 0.00 7 1014.5
20260506164509 30 131 3.2 11.3 0.00 0.00 0.00 7 1014.4
20260506164003 30 121 1.6 16.1 0.00 0.00 0.00 7 1014.5
20260506163501 30 110 3.2 16.1 0.00 0.00 0.00 7 1014.5
20260506163004 30 62 4.8 14.5 0.00 0.00 0.00 7 1014.6
20260506162503 30 53 1.6 12.9 0.00 0.00 0.00 8 1014.6
20260506162001 30 75 4.8 12.9 0.00 0.00 0.00 8 1014.6
20260506161600 30 55 3.2 9.7 0.00 0.00 0.00 8 1014.6
20260506161102 30 68 3.2 14.5 0.00 0.00 0.00 8 1014.7
20260506160558 30 141 4.8 14.5 0.00 0.00 0.00 8 1014.6
20260506160124 29 147 0.0 12.9 0.00 0.00 0.00 8 1014.7
20260506155558 29 80 4.8 12.9 0.00 0.00 0.00 8 1014.8
20260506155102 29 63 3.2 11.3 0.00 0.00 0.00 8 1014.7
20260506154559 29 64 3.2 11.3 0.00 0.00 0.00 9 1014.8
20260506154058 28 121 3.2 11.3 0.00 0.00 0.00 9 1014.7
20260506153601 28 139 4.8 8.0 0.00 0.00 0.00 8 1014.7
20260506153058 28 88 1.6 8.0 0.00 0.00 0.00 9 1014.7
20260506152557 29 58 1.6 14.5 0.00 0.00 0.00 8 1014.8
20260506152101 29 41 8.0 14.5 0.00 0.00 0.00 9 1014.8
20260506151557 29 8 0.0 3.2 0.00 0.00 0.00 9 1014.8
20260506151055 28 8 0.0 4.8 0.00 0.00 0.00 9 1014.7
20260506150556 28 8 1.6 8.0 0.00 0.00 0.00 9 1014.9
20260506150103 28 8 1.6 9.7 0.00 0.00 0.00 9 1014.9
20260506145555 28 354 3.2 9.7 0.00 0.00 0.00 10 1015.0
20260506145054 27 14 1.6 9.7 0.00 0.00 0.00 10 1015.0
20260506144555 27 81 3.2 9.7 0.00 0.00 0.00 10 1015.1
20260506144054 27 49 1.6 9.7 0.00 0.00 0.00 10 1015.0
20260506143554 27 75 1.6 12.9 0.00 0.00 0.00 11 1015.1
20260506143054 27 118 3.2 12.9 0.00 0.00 0.00 11 1015.1
20260506142554 26 127 3.2 11.3 0.00 0.00 0.00 11 1015.1
20260506142053 26 124 4.8 12.9 0.00 0.00 0.00 11 1015.1
20260506141550 26 158 4.8 14.5 0.00 0.00 0.00 10 1015.1
20260506141050 26 149 4.8 12.9 0.00 0.00 0.00 11 1015.1
20260506140550 26 172 3.2 14.5 0.00 0.00 0.00 12 1015.1
20260506140050 26 132 1.6 14.5 0.00 0.00 0.00 12 1015.0
20260506135549 26 122 1.6 8.0 0.00 0.00 0.00 13 1015.1
20260506135049 26 75 0.0 12.9 0.00 0.00 0.00 13 1015.0
20260506134552 25 139 3.2 12.9 0.00 0.00 0.00 13 1015.1
20260506134050 25 143 1.6 4.8 0.00 0.00 0.00 14 1015.0
20260506133548 25 143 1.6 3.2 0.00 0.00 0.00 15 1015.0
20260506133104 25 143 0.0 3.2 0.00 0.00 0.00 15 1014.8
20260506132546 25 143 0.0 1.6 0.00 0.00 0.00 16 1014.8
20260506132047 25 143 0.0 3.2 0.00 0.00 0.00 17 1014.7
20260506131545 24 143 0.0 3.2 0.00 0.00 0.00 16 1014.7
20260506131044 24 143 0.0 1.6 0.00 0.00 0.00 16 1014.6
20260506130544 23 143 0.0 1.6 0.00 0.00 0.00 17 1014.7
20260506130043 23 143 0.0 1.6 0.00 0.00 0.00 17 1014.7
20260506125542 23 143 0.0 1.6 0.00 0.00 0.00 16 1014.5
20260506125042 23 143 0.0 3.2 0.00 0.00 0.00 16 1014.4
20260506124541 22 143 0.0 3.2 0.00 0.00 0.00 16 1014.4
20260506124042 23 143 0.0 3.2 0.00 0.00 0.00 15 1014.2
20260506123542 23 143 0.0 4.8 0.00 0.00 0.00 15 1014.3
20260506123039 23 143 0.0 4.8 0.00 0.00 0.00 14 1014.1
20260506122535 23 143 0.0 6.4 0.00 0.00 0.00 14 1014.2
20260506122038 23 143 0.0 8.0 0.00 0.00 0.00 14 1014.1
20260506121534 23 136 3.2 17.7 0.00 0.00 0.00 13 1014.1
20260506121032 23 143 3.2 8.0 0.00 0.00 0.00 13 1014.1
20260506120532 24 76 0.0 14.5 0.00 0.00 0.00 13 1014.0
20260506120050 24 118 6.4 14.5 0.00 0.00 0.00 13 1014.0
20260506115531 24 127 6.4 16.1 0.00 0.00 0.00 13 1013.9
20260506115030 24 141 8.0 16.1 0.00 0.00 0.00 13 1013.8
20260506114534 24 118 6.4 19.3 0.00 0.00 0.00 13 1013.8